Wetbulb
63.65 63.56 66.50 62.55 51.53 49.38 45.48 46.98 51.66 49.98 50.41 54.07 54.07 52.68 51.25 52.93 52.54 51.02 67.32 69.16 69.49 70.42 71.78 72.38 71.62 72.57 72.89 72.67 72.38 72.49 72.25 72.15 71.45 71.19 70.69 69.64 69.64 69.50 68.27 68.83 69.57 69.74 69.00 67.57 67.04 67.07 65.94 65.94 65.88
62.61 61.49 63.73 58.68 47.55 43.46 44.94 50.00 48.40 52.09 53.38 54.53 54.73 54.04 53.39 51.31 57.65 60.81 65.60 69.11 70.14 70.79 71.75 72.06 70.36 71.92 72.49 72.54 72.19 72.13 72.03 71.92 71.80 71.86 70.88 70.41 69.48 69.15 67.95 68.75 68.95 68.59 67.69 67.13 67.53 66.45 65.72 65.41 64.49
60.68 61.55 56.32 51.96 47.92 43.83 44.77 49.99 51.36 53.47 54.44 54.13 53.36 56.60 55.18 54.10 62.06 64.66 67.99 69.54 70.34 70.47 71.19 71.43 70.21 71.57 72.16 72.04 72.06 71.96 71.77 71.77 72.09 72.00 71.43 70.46 69.61 69.35 68.47 68.11 68.98 68.10 68.16 67.25 66.42 65.71 65.95 65.69 65.00
59.23 58.92 57.18 47.95 44.56 48.64 49.64 51.87 52.93 53.12 54.37 55.09 54.92 52.96 57.96 63.91 64.18 67.07 68.41 69.73 69.58 69.72 70.83 70.05 70.59 71.58 71.56 71.51 71.68 71.82 71.84 71.84 71.85 71.26 71.28 70.46 70.52 69.70 68.94 68.51 68.47 68.13 68.14 66.66 65.85 65.47 65.80 65.68 65.07
59.30 56.45 46.60 45.11 44.93 48.96 52.08 53.29 53.89 52.10 53.56 54.00 54.82 53.08 55.16 62.33 67.50 67.93 68.75 69.32 68.49 69.29 70.71 71.52 70.32 70.95 71.06 71.14 71.43 71.39 71.17 71.19 71.10 70.92 70.71 70.33 70.24 69.42 68.67 68.11 67.66 67.66 68.15 66.11 65.50 65.42 65.47 65.77 65.16
50.12 52.64 42.99 40.66 43.74 48.16 51.74 53.89 53.47 52.55 54.29 54.83 54.07 54.53 56.20 65.51 65.97 67.83 68.95 68.71 68.79 68.80 70.49 71.24 67.88 68.74 69.71 70.27 70.58 70.68 70.92 70.81 70.70 70.39 70.22 69.93 69.90 69.09 68.48 67.71 67.14 66.99 67.05 66.05 65.29 64.79 64.51 64.69 64.80
46.17 45.49 40.59 41.96 42.84 45.32 49.54 54.14 51.79 52.46 53.51 54.09 56.65 52.67 57.06 60.37 66.59 67.33 68.34 68.78 69.02 69.17 69.80 70.50 70.86 69.41 66.49 67.82 68.28 69.00 69.73 70.04 69.95 69.64 69.13 68.72 68.70 68.15 67.63 67.05 66.87 66.30 65.86 65.68 64.87 64.10 63.57 63.28 63.35
48.75 46.29 39.83 41.10 40.72 42.55 49.84 51.72 53.63 52.58 51.86 57.80 57.60 51.99 53.63 62.48 66.18 67.28 67.62 67.87 68.26 68.69 69.72 69.73 70.16 70.12 69.84 69.32 65.27 66.36 67.46 67.94 68.55 67.82 66.50 65.93 65.97 65.92 65.73 65.09 66.16 66.50 65.47 64.82 64.00 63.11 62.51 62.32 62.33
50.12 39.81 35.70 38.48 40.03 42.66 49.09 48.14 52.93 52.64 51.56 54.73 56.30 56.16 59.87 63.39 65.73 66.00 65.18 66.21 66.89 67.64 68.47 69.65 69.23 69.39 68.89 68.08 66.36 64.67 64.73 65.44 65.48 65.74 63.52 64.09 67.80 66.43 65.15 63.81 64.74 65.79 65.03 63.88 62.56 62.01 62.27 62.62 61.94
42.93 35.99 35.75 41.21 43.30 43.17 45.11 44.80 45.76 46.91 49.76 50.93 53.57 56.99 57.21 58.50 62.27 62.71 63.38 63.67 64.84 65.93 67.41 68.50 68.53 68.66 68.31 66.76 68.21 68.08 69.24 69.44 69.30 69.08 68.41 68.08 66.14 66.13 65.14 62.48 62.49 63.57 63.00 63.21 62.51 61.85 60.96 59.77 61.60
38.77 34.21 37.69 40.07 42.43 43.06 42.37 43.31 46.68 44.71 44.59 49.42 50.56 51.65 53.07 53.68 57.45 61.97 62.31 63.37 64.80 66.39 67.30 68.01 67.89 68.27 67.76 66.42 67.78 68.06 68.85 68.76 68.86 68.65 68.22 66.77 66.68 66.03 65.88 65.40 64.59 64.33 59.89 61.17 60.84 60.35 60.23 60.64 61.42
34.07 37.08 38.21 38.48 39.90 39.03 38.27 41.64 41.15 43.34 45.15 49.05 49.62 50.06 50.06 52.28 54.93 59.34 61.92 63.18 63.51 65.43 66.49 67.14 67.26 67.14 67.14 66.98 66.67 66.65 66.88 67.10 67.68 67.13 66.82 66.56 65.39 64.74 64.33 64.28 64.39 64.02 61.64 60.50 60.05 60.36 61.37 61.58 62.00
34.35 35.65 36.93 37.94 38.02 38.29 38.85 37.05 37.73 39.39 43.91 45.68 46.15 46.82 47.85 51.79 55.20 57.73 61.12 64.42 64.22 64.34 65.99 66.46 66.79 65.87 66.22 66.02 66.57 66.37 65.88 65.89 67.35 66.89 67.10 66.15 64.87 64.11 63.88 63.43 63.17 62.34 60.99 59.64 59.03 60.44 60.76 61.05 61.31
35.96 35.89 36.04 37.33 36.81 37.70 35.92 36.50 37.62 38.22 41.79 42.40 44.17 45.98 48.76 51.57 53.57 55.45 58.35 60.32 62.97 63.98 65.40 65.87 65.71 65.67 66.13 65.54 65.51 65.42 65.18 65.36 66.60 66.51 66.50 65.77 64.83 64.18 63.39 62.85 62.01 60.99 59.93 59.18 59.37 60.52 60.77 60.54 61.02
36.18 31.79 34.75 35.58 35.88 34.76 37.05 32.34 33.47 39.13 40.26 39.29 40.75 43.48 45.96 47.94 50.40 51.59 56.12 58.57 62.50 64.84 64.79 64.82 65.23 65.76 65.15 65.05 64.75 65.04 65.17 65.58 66.44 66.31 66.31 65.48 64.59 63.89 63.16 62.56 61.56 60.31 59.57 59.32 60.73 61.94 61.73 61.00 61.15
31.60 32.14 27.12 33.92 34.89 35.28 34.63 28.16 36.32 38.36 38.26 38.14 39.52 41.20 42.99 46.53 48.81 51.13 54.56 57.79 60.88 63.80 63.88 64.96 64.78 65.17 65.20 64.56 64.22 64.34 65.03 65.50 65.87 66.31 65.91 64.92 63.92 63.49 62.91 62.14 61.05 59.85 59.09 60.23 61.42 61.60 60.74 60.80 61.05
29.56 24.10 26.83 29.64 35.36 33.46 32.93 30.06 36.45 38.23 37.38 36.66 37.81 38.72 40.77 44.48 49.27 52.77 55.78 58.75 61.40 63.21 64.20 63.31 63.74 63.59 64.13 64.17 64.12 63.83 63.83 64.74 64.55 64.24 63.13 62.73 62.87 62.96 62.31 61.58 60.47 59.64 58.72 60.41 61.35 61.28 60.85 60.00 60.47
24.58 23.85 26.36 26.65 31.69 32.28 30.67 30.34 35.13 37.46 36.94 36.94 38.09 39.61 40.96 42.15 44.42 49.16 53.83 59.39 61.63 64.13 64.28 63.57 63.35 63.95 64.15 63.56 63.30 63.41 63.30 63.15 63.91 61.76 61.13 61.33 61.88 62.13 61.78 60.96 59.82 59.21 58.99 60.24 61.20 61.12 61.28 60.92 60.55
30.73 28.43 26.05 30.44 32.95 29.79 29.87 30.33 33.13 36.25 36.95 36.78 37.91 38.97 39.79 41.01 46.54 51.15 52.65 58.73 60.83 62.48 63.05 62.81 62.66 62.57 63.03 62.72 61.94 61.25 60.79 61.41 62.10 61.21 60.86 61.36 61.61 61.96 61.62 61.49 60.05 59.35 58.46 60.12 61.00 61.11 60.49 60.45 60.26
29.06 27.09 27.20 30.39 32.26 28.95 28.88 28.93 32.92 34.79 35.16 36.40 37.03 38.22 39.91 41.59 44.21 52.11 55.80 56.28 58.00 59.05 62.28 62.76 63.00 62.70 62.81 62.77 62.35 62.27 62.01 61.69 62.14 62.02 60.91 61.56 61.86 61.95 61.66 61.71 60.76 60.26 58.75 60.44 60.68 60.76 60.06 60.59 59.38
28.96 26.76 27.18 26.47 29.62 29.65 28.01 25.98 29.39 33.98 35.45 36.42 37.38 38.22 38.87 39.95 42.07 47.71 52.38 53.29 54.47 54.46 53.69 61.63 63.08 62.93 62.80 63.12 62.46 62.17 62.16 61.80 60.91 61.14 61.17 61.11 61.82 62.38 61.90 62.04 61.77 61.59 61.29 60.19 60.66 60.81 60.22 59.05 59.48
26.89 32.21 30.00 27.84 26.56 20.78 29.10 17.36 27.75 31.91 32.68 34.36 36.05 37.32 38.03 39.82 42.08 47.06 49.97 49.32 49.95 50.62 50.33 52.13 55.45 62.64 62.64 62.72 61.48 60.75 60.08 58.58 59.42 60.84 61.52 60.68 61.84 61.79 62.28 62.29 62.22 61.90 61.97 61.26 61.57 61.71 60.96 60.71 58.22
29.76 33.61 30.48 28.39 25.92 24.44 24.55 19.76 25.17 31.21 29.64 32.28 35.35 36.95 38.64 40.58 42.00 48.15 47.09 45.41 45.46 47.34 48.53 50.48 53.19 53.56 57.29 62.40 62.01 60.79 59.50 60.23 60.94 61.07 60.95 61.39 61.79 62.49 62.47 62.60 62.61 62.14 62.02 62.22 62.27 62.01 61.38 60.93 59.87
33.17 29.21 28.48 27.88 25.91 17.86 22.55 21.22 22.36 27.13 30.18 32.95 35.77 36.86 38.83 41.30 44.90 43.86 44.54 44.95 44.67 46.19 47.20 48.30 49.71 49.17 50.98 53.44 56.58 60.52 60.86 60.71 60.32 59.95 59.58 61.20 61.57 61.70 62.12 62.35 62.52 62.21 61.84 61.72 61.76 61.75 60.60 60.06 60.18
31.00 26.21 18.50 16.67 16.82 15.37 21.99 21.20 23.27 30.38 34.07 35.15 36.14 36.92 40.50 42.80 41.17 41.26 42.49 42.69 42.86 43.34 45.27 45.30 46.15 45.18 47.64 47.98 48.43 48.85 51.18 56.58 60.03 60.07 59.90 60.09 61.03 61.36 61.39 61.88 62.10 61.72 61.56 61.87 62.01 60.76 59.86 59.95 59.51
28.02 26.12 18.96 11.10 12.68 17.97 20.77 17.03 24.44 31.82 34.04 35.65 37.46 39.41 39.94 38.72 39.50 39.52 40.02 40.36 40.79 40.63 41.97 43.46 43.79 43.22 44.07 45.36 45.34 45.72 46.61 50.10 55.02 52.63 60.36 60.49 59.93 60.41 62.11 61.32 61.75 61.78 61.54 61.14 61.53 61.46 59.83 59.76 58.89
28.58 24.09 28.91 22.87 23.09 19.24 21.78 25.75 29.77 31.05 32.04 35.86 35.50 35.78 35.79 36.25 36.51 37.39 38.15 38.70 39.06 39.34 39.59 40.27 41.10 41.18 41.61 42.66 43.37 42.93 43.51 44.40 45.24 47.08 47.91 50.10 51.47 51.49 51.00 51.73 52.05 51.76 52.58 54.46 54.07 50.77 47.75 49.16 47.64
30.53 31.98 22.92 24.79 14.92 16.40 21.18 20.76 19.48 25.81 28.45 31.34 31.39 31.52 32.72 34.75 35.14 35.86 37.47 37.90 38.14 38.98 38.72 39.94 40.39 38.80 39.71 40.79 40.99 41.34 41.76 41.89 42.34 42.97 43.05 44.59 44.97 45.64 46.07 46.48 46.03 44.86 44.91 46.59 46.27 44.49 43.66 42.29 41.80
27.76 26.50 28.19 28.28 24.02 20.81 17.05 18.09 27.10 27.79 29.16 29.31 30.60 31.95 32.96 33.52 32.97 34.34 35.46 36.98 37.49 37.79 38.15 38.62 37.78 38.09 38.40 38.63 39.06 39.02 39.90 40.10 40.20 40.17 40.77 41.40 42.23 42.62 42.71 42.88 42.72 42.86 42.40 41.75 41.56 40.82 40.41 39.27 38.22
29.15 28.17 28.72 23.28 21.45 23.11 21.28 17.85 28.95 30.11 30.25 30.15 29.94 31.22 32.27 32.99 32.32 32.79 34.26 35.10 35.91 36.48 36.60 36.20 36.75 36.77 37.09 37.83 37.63 37.56 37.84 38.47 38.22 37.63 38.55 39.56 39.04 39.85 40.08 39.86 39.69 39.35 39.94 39.67 38.59 37.17 37.08 36.40 35.27
MSLP
1017.18 1016.63 1016.32 1015.71 1015.22 1013.69 1012.31 1012.20 1011.97 1011.32 1011.27 1011.42 1011.42 1011.01 1010.60 1010.34 1010.12 1010.63 1011.68 1011.54 1011.82 1011.91 1012.54 1013.50 1014.18 1014.44 1014.78 1015.10 1015.52 1015.63 1015.89 1016.35 1016.59 1017.06 1017.39 1017.92 1017.89 1017.96 1018.28 1018.38 1018.52 1018.73 1018.75 1019.03 1019.33 1019.53 1019.73 1019.84 1019.89
1017.18 1016.62 1016.04 1015.44 1014.61 1012.60 1011.58 1012.00 1011.63 1011.28 1011.43 1011.65 1011.31 1010.98 1010.82 1010.20 1010.69 1010.76 1011.58 1011.93 1011.93 1012.00 1012.60 1013.18 1014.16 1014.62 1014.91 1015.28 1015.62 1015.66 1016.02 1016.42 1016.60 1017.01 1017.49 1017.73 1018.14 1018.03 1018.48 1018.63 1018.84 1018.90 1019.13 1019.31 1019.67 1019.85 1019.97 1020.06 1020.18
1016.99 1016.79 1015.74 1014.89 1013.51 1011.41 1011.20 1011.70 1011.52 1011.30 1011.74 1011.49 1011.17 1010.84 1010.49 1010.20 1010.94 1011.16 1011.67 1011.85 1012.01 1012.21 1012.73 1013.17 1014.04 1014.72 1015.11 1015.41 1015.72 1015.90 1016.19 1016.52 1016.64 1016.97 1017.40 1017.70 1018.04 1018.30 1018.58 1018.87 1019.02 1019.28 1019.43 1019.71 1019.97 1020.20 1020.20 1020.31 1020.47
1016.91 1016.41 1015.96 1014.30 1011.77 1011.21 1011.18 1011.11 1011.53 1011.37 1011.56 1011.66 1011.28 1010.66 1010.62 1010.67 1010.90 1011.49 1011.96 1011.86 1012.14 1012.53 1012.82 1013.59 1014.03 1014.61 1015.09 1015.58 1015.75 1016.02 1016.43 1016.59 1016.84 1017.13 1017.32 1017.81 1018.05 1018.38 1018.73 1019.07 1019.31 1019.49 1019.63 1019.88 1020.21 1020.42 1020.49 1020.57 1020.72
1017.01 1015.91 1014.77 1013.15 1011.65 1011.20 1011.69 1011.83 1011.59 1011.49 1011.35 1011.34 1011.53 1010.49 1010.60 1010.86 1011.47 1011.74 1011.99 1012.14 1012.15 1012.80 1013.18 1013.77 1014.10 1014.52 1015.03 1015.59 1015.80 1016.21 1016.64 1016.77 1017.02 1017.30 1017.48 1017.81 1018.21 1018.55 1018.94 1019.26 1019.58 1019.74 1019.85 1020.19 1020.61 1020.72 1020.80 1020.84 1021.00
1016.70 1015.79 1014.07 1012.10 1011.10 1011.07 1011.30 1012.17 1012.10 1011.80 1011.46 1011.36 1011.49 1011.03 1010.89 1011.55 1011.62 1011.85 1011.89 1012.25 1012.48 1012.86 1013.37 1013.79 1014.48 1014.41 1015.02 1015.54 1015.91 1016.17 1016.74 1016.84 1017.12 1017.47 1017.71 1017.92 1018.22 1018.64 1019.02 1019.45 1019.81 1020.05 1020.20 1020.48 1020.89 1021.08 1021.13 1021.23 1021.29
1016.74 1015.68 1013.40 1012.21 1011.27 1010.86 1011.11 1012.30 1012.12 1011.82 1011.47 1011.32 1011.45 1011.00 1010.88 1011.03 1011.78 1012.16 1012.13 1012.45 1012.71 1013.09 1013.32 1013.82 1014.56 1014.68 1015.18 1015.39 1015.86 1016.20 1016.70 1016.93 1017.08 1017.59 1017.97 1018.18 1018.38 1018.70 1019.09 1019.63 1020.01 1020.34 1020.55 1020.77 1021.10 1021.38 1021.44 1021.51 1021.58
1017.88 1016.53 1014.05 1012.89 1012.08 1010.76 1011.74 1012.61 1012.50 1012.07 1011.04 1011.29 1011.58 1010.79 1011.04 1011.59 1012.38 1012.64 1012.91 1013.05 1013.08 1013.20 1013.25 1013.70 1014.19 1014.60 1015.15 1015.58 1015.90 1016.27 1016.56 1017.08 1017.13 1017.46 1018.15 1018.47 1018.63 1018.93 1019.18 1019.79 1020.09 1020.48 1020.77 1021.06 1021.33 1021.56 1021.66 1021.74 1021.84
1018.43 1017.14 1014.48 1013.66 1013.24 1012.61 1012.68 1013.00 1012.83 1013.22 1012.47 1011.66 1011.41 1011.31 1011.89 1012.32 1012.75 1012.72 1013.11 1013.24 1013.31 1013.41 1013.40 1013.45 1013.97 1014.37 1014.92 1015.33 1015.89 1016.32 1016.54 1016.99 1017.40 1017.36 1018.23 1018.68 1018.67 1019.04 1019.38 1019.68 1020.20 1020.58 1020.95 1021.26 1021.53 1021.67 1021.78 1021.93 1022.05
1018.69 1017.08 1015.74 1015.35 1015.17 1014.45 1014.59 1014.71 1014.65 1014.11 1012.75 1012.37 1012.10 1011.96 1012.64 1012.91 1013.07 1012.99 1013.10 1013.24 1013.39 1013.42 1013.23 1013.63 1013.83 1014.34 1014.72 1015.22 1015.75 1015.87 1016.07 1016.62 1017.03 1017.23 1017.90 1018.32 1018.72 1019.00 1019.16 1019.88 1020.35 1020.77 1021.14 1021.41 1021.62 1021.80 1022.01 1021.99 1021.58
1018.97 1017.67 1017.03 1016.85 1016.69 1016.47 1015.82 1015.25 1014.93 1014.60 1013.56 1013.24 1012.86 1013.19 1012.99 1013.03 1013.00 1012.80 1013.11 1013.24 1013.07 1013.18 1013.22 1013.32 1013.68 1014.02 1014.45 1015.16 1015.71 1015.51 1015.78 1016.31 1016.79 1017.25 1017.46 1018.26 1018.40 1019.06 1019.34 1019.95 1020.40 1020.87 1021.41 1021.27 1021.60 1021.93 1021.59 1021.51 1021.41
1019.67 1018.84 1018.62 1017.96 1017.84 1017.47 1016.72 1016.08 1015.27 1014.85 1014.28 1014.22 1014.13 1014.05 1013.72 1013.27 1013.13 1012.75 1012.40 1012.62 1013.09 1012.93 1012.89 1013.01 1013.40 1014.08 1014.29 1014.98 1015.59 1015.84 1015.93 1016.25 1016.67 1017.16 1017.46 1018.11 1018.41 1018.62 1019.01 1019.40 1019.99 1020.55 1020.97 1021.02 1021.23 1021.31 1021.46 1021.53 1021.54
1019.86 1019.29 1018.97 1018.72 1018.56 1017.98 1017.38 1016.45 1015.87 1014.78 1014.94 1014.99 1014.28 1014.00 1013.74 1013.33 1012.96 1012.66 1012.34 1012.16 1012.49 1012.72 1012.62 1012.84 1012.75 1013.84 1014.15 1014.58 1015.21 1015.71 1016.05 1016.46 1016.31 1016.85 1017.29 1017.84 1018.05 1018.40 1018.85 1019.23 1019.84 1020.36 1020.76 1020.98 1021.07 1021.11 1021.30 1021.44 1021.45
1020.03 1019.71 1019.10 1018.75 1018.55 1018.07 1017.38 1016.34 1015.85 1014.54 1014.41 1014.60 1014.18 1013.64 1013.43 1012.99 1012.76 1012.61 1012.26 1011.85 1012.19 1012.30 1012.42 1012.61 1012.68 1013.41 1013.76 1014.27 1014.58 1015.48 1015.99 1016.46 1016.41 1016.67 1017.10 1017.56 1017.87 1018.15 1018.58 1019.04 1019.52 1020.17 1020.59 1020.73 1020.82 1020.89 1021.02 1021.14 1021.26
1020.62 1019.77 1018.59 1017.80 1017.62 1017.54 1017.40 1015.49 1014.29 1014.64 1014.46 1013.73 1013.47 1013.30 1013.06 1012.81 1012.53 1012.32 1012.08 1011.84 1011.47 1011.82 1012.12 1012.25 1012.59 1012.97 1013.40 1013.87 1014.40 1015.24 1015.80 1016.09 1016.14 1016.40 1016.78 1017.35 1017.70 1017.95 1018.33 1018.76 1019.12 1019.74 1020.39 1020.67 1020.71 1020.84 1020.88 1020.90 1021.03
1020.79 1020.03 1018.44 1016.69 1016.85 1017.25 1017.39 1013.73 1013.58 1013.77 1013.83 1013.34 1012.99 1012.79 1012.52 1012.33 1012.09 1011.83 1011.73 1011.59 1011.36 1011.26 1011.74 1011.90 1012.15 1012.77 1013.10 1013.50 1014.09 1014.89 1015.43 1015.51 1015.74 1016.10 1016.38 1017.13 1017.45 1017.67 1018.07 1018.42 1018.68 1019.30 1020.10 1020.35 1020.47 1020.51 1020.72 1020.76 1020.80
1020.43 1019.04 1017.86 1017.15 1016.89 1017.05 1016.77 1014.12 1013.02 1013.43 1013.26 1012.91 1012.51 1012.34 1012.09 1011.92 1011.68 1011.28 1011.11 1011.07 1010.91 1010.84 1011.21 1011.66 1011.66 1012.14 1012.78 1013.13 1013.62 1014.55 1015.25 1015.22 1015.77 1016.16 1016.41 1016.92 1017.14 1017.45 1017.66 1018.09 1018.45 1018.93 1019.67 1020.05 1020.11 1020.25 1020.35 1020.49 1020.57
1018.73 1018.56 1017.36 1016.54 1016.59 1016.70 1016.15 1014.24 1013.25 1013.13 1013.07 1012.71 1012.27 1012.09 1011.66 1011.44 1011.16 1011.08 1010.80 1010.77 1010.66 1010.37 1010.61 1011.15 1011.42 1011.73 1012.37 1012.99 1013.52 1014.23 1014.95 1015.24 1015.50 1015.98 1016.23 1016.59 1016.83 1017.15 1017.44 1017.80 1018.28 1018.60 1019.20 1019.67 1019.84 1019.88 1020.19 1020.19 1020.34
1017.87 1017.59 1016.68 1016.04 1016.49 1016.65 1015.40 1014.18 1012.58 1012.80 1012.52 1012.16 1011.85 1011.64 1011.59 1011.22 1010.96 1010.49 1010.21 1010.59 1010.53 1010.34 1010.41 1010.75 1011.11 1011.46 1012.00 1012.70 1012.98 1013.04 1014.08 1014.76 1015.17 1015.51 1015.80 1016.24 1016.46 1016.81 1017.15 1017.38 1017.85 1018.29 1018.62 1019.06 1019.42 1019.67 1019.84 1020.15 1020.50
1017.85 1017.32 1015.54 1015.32 1016.01 1016.59 1015.04 1013.43 1012.50 1012.09 1011.88 1011.46 1011.20 1010.81 1010.84 1010.71 1010.57 1010.22 1010.37 1010.43 1010.66 1010.55 1010.29 1010.34 1010.70 1011.10 1010.88 1012.16 1012.60 1012.94 1013.56 1014.32 1014.65 1015.08 1015.52 1015.74 1015.96 1016.37 1016.62 1016.86 1017.30 1017.74 1018.25 1018.73 1019.00 1019.20 1019.38 1019.65 1020.28
1016.56 1016.20 1015.21 1015.39 1015.87 1016.24 1015.01 1013.22 1011.97 1010.99 1011.24 1010.78 1010.25 1010.22 1010.19 1010.08 1010.19 1010.01 1010.49 1010.66 1010.85 1010.71 1010.52 1010.12 1010.20 1010.82 1011.16 1011.76 1012.19 1012.77 1013.54 1013.90 1014.47 1014.79 1015.14 1015.19 1015.45 1015.94 1016.16 1016.43 1016.79 1017.23 1017.70 1018.13 1018.59 1018.74 1018.91 1019.08 1019.71
1014.81 1014.63 1014.96 1015.24 1015.75 1014.63 1014.28 1011.89 1010.69 1009.74 1009.43 1009.49 1009.02 1009.17 1009.39 1009.47 1009.84 1010.09 1010.76 1011.10 1011.23 1011.21 1010.85 1010.81 1010.67 1010.22 1010.51 1011.31 1011.96 1012.05 1012.08 1012.45 1013.15 1013.62 1014.25 1014.53 1014.90 1015.29 1015.62 1015.92 1016.32 1016.69 1017.15 1017.54 1017.91 1018.21 1018.37 1018.77 1019.03
1013.62 1013.94 1014.48 1014.87 1015.00 1014.71 1013.26 1012.72 1009.46 1009.11 1008.07 1008.07 1008.00 1008.29 1008.60 1008.79 1009.47 1010.47 1011.17 1011.56 1011.70 1011.62 1011.29 1011.02 1010.94 1010.82 1010.27 1010.27 1011.16 1011.60 1012.02 1012.38 1012.82 1013.13 1013.55 1013.90 1014.25 1014.52 1014.86 1015.23 1015.60 1016.07 1016.51 1016.96 1017.26 1017.62 1017.92 1018.22 1018.52
1014.28 1014.43 1014.56 1014.80 1014.62 1013.28 1011.48 1011.90 1008.04 1007.73 1007.00 1007.10 1006.97 1007.49 1007.92 1008.52 1010.15 1011.28 1011.84 1011.95 1012.04 1012.02 1011.71 1011.20 1011.50 1011.53 1011.38 1010.95 1011.34 1011.13 1011.52 1011.78 1012.08 1012.50 1012.95 1013.25 1013.66 1013.99 1014.25 1014.65 1014.95 1015.36 1015.79 1016.11 1016.50 1016.96 1017.29 1017.58 1017.90
1014.30 1014.36 1014.17 1013.96 1013.41 1011.48 1010.82 1010.88 1008.28 1008.09 1007.63 1007.22 1006.99 1007.11 1007.91 1009.47 1010.88 1011.77 1012.12 1012.03 1012.55 1012.47 1012.40 1011.80 1011.86 1012.21 1012.12 1011.86 1010.32 1012.05 1012.18 1011.80 1011.15 1011.81 1012.18 1012.77 1013.01 1013.34 1013.56 1013.98 1014.38 1014.76 1015.04 1015.36 1015.69 1016.30 1016.66 1016.89 1017.18
1013.52 1013.60 1013.12 1012.50 1011.85 1010.87 1011.33 1010.14 1009.01 1009.01 1008.42 1007.80 1007.91 1007.88 1009.05 1010.20 1011.59 1012.38 1012.67 1012.40 1013.07 1012.98 1012.91 1012.41 1012.75 1012.70 1012.99 1012.84 1012.84 1013.01 1012.83 1012.40 1012.23 1012.31 1011.65 1011.86 1012.55 1012.73 1013.14 1013.58 1013.91 1014.27 1014.62 1014.96 1015.35 1015.97 1016.28 1016.61 1016.46
1013.22 1012.83 1012.28 1012.03 1011.37 1010.82 1009.91 1009.96 1009.66 1009.58 1008.38 1007.71 1008.52 1009.58 1010.12 1011.39 1012.50 1013.06 1013.01 1013.16 1013.51 1013.59 1013.14 1013.36 1013.45 1013.75 1013.47 1013.87 1013.90 1013.47 1013.11 1013.43 1013.35 1012.91 1012.68 1011.91 1012.55 1012.91 1013.30 1013.67 1013.66 1014.07 1014.48 1014.83 1015.15 1015.35 1015.96 1016.17 1016.89
1013.19 1012.56 1012.41 1011.73 1010.71 1008.97 1009.40 1010.23 1010.88 1010.32 1009.66 1009.42 1009.99 1010.78 1011.56 1012.66 1013.18 1013.44 1013.94 1014.03 1014.22 1014.11 1013.90 1014.06 1014.07 1014.19 1013.41 1014.50 1013.77 1013.94 1014.42 1014.34 1014.22 1014.13 1013.73 1013.71 1013.30 1013.48 1013.90 1013.97 1014.30 1014.26 1015.01 1015.44 1015.57 1016.18 1016.47 1017.00 1017.35
1013.22 1012.07 1011.35 1010.57 1010.11 1008.94 1009.87 1012.00 1012.71 1011.64 1011.40 1011.02 1011.44 1011.88 1012.53 1013.39 1013.81 1014.34 1014.90 1014.78 1014.74 1014.34 1014.56 1014.91 1014.77 1014.41 1015.02 1015.55 1015.44 1014.98 1015.81 1015.78 1015.19 1015.10 1014.73 1014.73 1014.20 1014.04 1014.45 1015.19 1015.06 1015.59 1015.76 1016.36 1016.91 1016.71 1017.40 1018.14 1018.43
1013.46 1011.42 1010.68 1010.39 1009.97 1010.36 1011.07 1013.45 1013.92 1013.39 1013.12 1012.80 1012.81 1013.38 1014.08 1014.24 1014.94 1015.53 1015.84 1015.56 1015.28 1015.26 1015.20 1015.45 1015.26 1015.69 1016.40 1016.53 1016.34 1016.45 1016.54 1016.60 1016.28 1016.02 1016.15 1015.78 1015.29 1015.59 1016.10 1015.93 1015.88 1016.37 1017.03 1017.22 1018.24 1017.98 1018.33 1019.09 1020.03
Wind_Speed
12 8 3 4 8 7 14 12 8 5 4 3 2 7 6 5 5 2 4 10 6 17 19 20 18 18 17 18 18 19 19 19 20 19 18 17 17 16 14 13 14 14 17 17 15 14 13 12 13
9 4 3 2 9 16 14 14 14 11 5 1 5 6 7 7 3 3 1 7 12 18 18 20 16 17 17 18 18 19 19 19 20 19 19 19 16 17 15 15 13 14 14 17 14 13 12 13 14
5 3 5 5 13 21 17 13 17 11 6 7 5 5 3 2 1 2 1 8 14 17 18 17 17 18 17 17 17 18 17 18 19 19 19 19 18 16 15 14 12 15 15 15 14 12 12 14 14
2 4 4 13 23 20 23 17 13 12 10 7 5 8 3 2 1 0 2 11 15 15 16 18 18 20 18 15 16 16 15 16 16 18 19 18 17 16 15 14 12 13 14 15 13 11 12 14 13
3 3 12 17 28 26 10 12 14 14 8 6 2 4 4 1 4 3 5 12 15 13 14 18 17 19 18 16 15 15 15 15 16 16 17 17 17 16 15 14 13 11 13 15 13 12 11 11 12
6 5 11 23 28 24 21 13 9 12 12 10 8 11 8 3 4 1 6 12 13 12 11 17 13 15 16 16 14 13 13 15 14 15 16 17 18 17 17 15 13 11 13 14 13 11 11 10 10
9 10 20 23 24 24 23 18 19 17 17 13 5 8 5 5 5 1 7 11 13 11 12 14 16 14 11 13 12 12 11 12 14 14 15 16 16 16 16 15 14 13 12 13 12 10 10 10 9
5 6 14 18 20 27 13 8 11 19 24 19 10 8 11 6 4 5 3 5 11 12 14 14 14 15 14 13 10 10 10 9 10 13 12 11 11 12 13 11 12 13 12 12 11 10 10 10 8
3 8 14 20 17 16 10 13 13 6 8 9 9 12 6 8 0 5 4 5 7 9 12 15 12 14 13 13 11 10 9 9 11 13 11 13 11 12 14 10 13 12 12 11 11 11 9 8 7
8 8 12 8 5 9 7 6 6 6 12 11 10 7 7 10 3 5 7 9 11 12 12 11 13 13 13 10 13 14 12 11 14 14 17 11 9 9 10 8 11 12 10 10 10 10 8 8 6
4 9 6 11 7 9 9 12 8 7 14 12 10 9 15 15 11 7 9 10 13 13 10 12 12 14 14 11 8 7 7 7 9 16 14 9 10 8 8 7 8 7 8 7 8 7 6 6 4
8 9 10 8 9 10 14 13 15 14 15 12 12 11 14 16 12 11 12 13 10 15 16 13 12 11 14 9 8 8 7 7 8 9 14 10 8 10 8 7 8 8 7 7 7 5 5 6 5
14 13 12 12 14 16 17 19 20 21 16 15 21 19 18 16 13 11 12 12 11 13 15 17 15 12 13 14 9 7 9 7 11 11 12 11 10 9 9 8 8 8 7 7 6 6 6 6 6
8 14 17 16 15 12 16 19 18 16 12 13 13 16 15 16 13 13 11 13 12 10 15 12 15 14 14 13 14 8 8 8 11 11 12 13 10 9 9 9 8 8 7 6 6 6 6 6 6
11 17 18 18 17 16 12 23 25 16 16 20 17 16 16 19 19 16 14 12 14 14 13 15 16 15 15 16 13 8 8 9 11 11 14 14 12 11 11 8 8 8 7 8 7 6 5 6 6
11 13 13 2 6 6 9 25 16 6 11 16 17 16 19 17 18 18 16 14 13 13 12 15 13 14 17 16 12 8 8 10 11 11 11 15 14 13 11 9 9 9 7 7 7 6 6 6 6
9 12 18 17 14 5 14 19 14 7 14 19 19 18 18 17 17 16 15 14 12 12 15 14 15 15 15 13 11 11 9 10 8 9 9 13 13 13 10 9 9 10 8 8 7 7 7 7 7
11 13 16 16 1 14 15 25 20 18 16 18 17 13 13 16 20 17 14 13 11 12 13 15 13 15 15 11 10 8 8 7 8 7 7 10 10 13 11 9 10 10 9 9 8 9 8 7 6
19 20 25 19 8 12 19 23 25 20 19 19 19 17 17 20 17 18 15 11 11 9 13 16 16 14 11 8 9 9 9 9 9 8 10 12 12 13 13 9 10 11 11 11 11 10 10 7 6
23 24 28 25 18 14 21 26 24 22 20 21 21 19 17 17 17 13 12 8 9 8 12 16 16 16 14 9 9 6 8 8 9 9 9 12 13 14 13 12 11 12 10 12 12 12 9 8 7
22 26 25 25 11 17 20 22 24 24 21 23 23 21 19 20 17 15 12 8 6 3 3 12 16 15 14 14 9 6 5 2 6 9 9 11 13 13 14 14 12 12 11 10 11 12 13 9 8
23 24 26 23 13 12 15 10 16 19 20 22 23 21 20 20 18 13 10 6 3 4 1 4 5 14 16 15 13 17 12 12 11 11 10 10 14 16 15 15 14 13 9 11 11 11 12 9 8
19 12 12 17 15 19 22 10 16 20 18 21 22 20 21 21 17 13 8 3 1 3 1 2 3 6 5 16 16 14 14 9 7 8 12 13 13 14 15 15 14 13 10 11 12 12 11 9 8
4 2 5 9 10 14 17 18 17 18 21 23 23 20 22 15 9 8 6 5 3 3 2 4 6 7 5 7 2 4 11 14 11 10 8 9 10 10 15 15 13 13 12 11 11 11 12 11 11
5 6 3 5 7 9 2 12 17 11 8 9 13 20 15 15 11 9 8 8 4 6 4 6 6 8 7 6 8 7 7 9 6 11 10 10 10 9 13 15 13 11 12 11 11 11 12 12 10
11 7 5 7 5 4 4 8 3 12 12 16 17 14 17 14 9 7 6 9 6 7 6 9 8 10 8 8 7 4 6 4 5 2 8 9 9 9 11 12 11 12 10 10 10 8 9 10 10
6 11 5 6 5 7 7 2 4 16 8 11 17 15 14 12 10 8 8 9 8 7 10 10 9 9 10 9 6 7 8 6 6 6 5 4 5 4 5 4 6 5 3 4 4 3 4 2 3
6 2 5 6 5 6 4 4 11 15 11 12 16 14 14 12 12 10 7 9 8 10 10 11 12 10 14 11 10 10 8 7 7 7 8 5 8 9 7 8 6 9 8 5 7 5 6 9 6
7 5 6 4 6 5 4 4 13 13 11 10 12 12 13 13 13 9 6 8 9 12 12 12 12 14 14 10 9 11 9 8 8 8 9 6 9 9 10 7 9 8 9 10 6 10 8 10 9
8 11 5 5 3 5 3 5 15 11 11 10 14 14 13 13 11 8 8 8 11 13 15 13 13 14 11 9 11 11 11 9 11 11 10 10 11 10 9 9 10 10 9 9 7 10 10 10 9
Wind_Direction
314 321 297 243 241 236 236 225 260 195 196 185 185 219 231 303 218 281 355 187 188 168 157 160 159 157 155 150 150 143 143 147 145 148 147 146 139 135 131 123 127 129 124 121 124 115 115 112 104
317 306 221 254 244 238 231 229 228 220 132 225 242 222 240 250 283 307 147 181 180 170 158 164 157 156 154 151 154 148 150 152 153 152 152 149 147 140 143 133 142 119 131 126 121 119 124 121 111
288 275 238 219 237 241 244 196 243 224 230 261 267 255 251 229 177 306 130 160 179 174 170 157 156 157 156 157 157 152 154 157 158 156 157 154 151 146 143 141 134 138 140 132 121 123 130 125 118
266 185 222 239 238 236 249 243 250 247 232 236 251 253 213 310 339 80 186 165 175 177 174 147 158 158 159 159 156 155 161 162 161 164 160 159 151 144 142 141 139 148 141 136 128 131 135 131 124
238 226 230 234 247 245 215 262 245 248 251 199 232 227 267 177 339 268 178 173 171 172 179 162 157 156 159 162 160 162 168 167 168 168 163 158 148 144 142 142 143 153 146 135 134 131 128 135 130
203 248 230 231 236 238 239 218 230 237 248 254 255 268 266 63 339 342 175 178 171 164 175 167 157 152 158 164 167 165 171 170 172 172 165 160 150 148 145 146 147 153 144 145 141 139 132 135 138
247 217 241 246 243 238 229 213 233 241 240 233 268 267 286 307 30 79 175 175 170 165 171 174 176 160 154 158 166 171 176 172 166 170 165 160 153 151 148 148 149 153 154 150 146 146 139 135 135
263 261 246 240 245 246 224 234 242 235 251 254 244 250 254 50 77 122 147 165 172 170 175 182 180 175 178 175 161 167 171 182 167 156 159 152 144 140 136 143 152 151 152 152 152 152 147 137 130
238 246 248 243 241 245 243 254 230 321 271 233 226 246 13 3 48 154 165 170 169 177 179 180 179 180 183 183 173 162 154 165 152 143 143 149 163 153 152 163 152 145 145 153 155 153 142 128 120
227 240 257 275 305 257 296 261 300 292 233 238 240 240 3 359 292 274 206 200 195 188 185 178 168 185 182 186 174 183 169 180 178 168 164 165 156 161 172 140 124 129 141 151 155 146 139 188 166
230 250 291 265 299 302 286 280 265 264 250 242 274 321 326 329 323 255 241 234 216 200 190 174 168 183 183 189 184 185 175 166 171 170 163 165 166 157 164 151 153 156 170 171 167 160 185 182 183
263 253 262 279 289 296 276 290 271 262 271 299 292 298 307 307 296 287 257 237 229 208 201 175 169 187 189 183 184 186 175 161 166 173 169 169 170 168 170 176 184 182 188 180 183 180 175 181 186
257 268 268 270 268 269 276 264 267 270 275 282 282 282 283 280 287 284 282 263 215 219 205 194 169 179 191 185 182 181 179 181 179 177 181 181 176 172 171 173 178 185 185 188 189 186 184 187 190
297 285 281 270 265 266 266 265 260 253 269 273 268 278 270 268 280 292 280 266 226 212 205 193 180 178 188 192 181 176 179 183 188 185 187 188 183 177 176 174 178 187 191 189 194 192 190 193 193
284 289 288 266 249 251 256 264 249 255 250 258 259 268 268 262 268 269 278 277 265 223 214 188 190 182 184 190 186 178 188 189 193 192 187 191 189 182 183 181 178 184 189 194 194 195 198 195 193
275 278 283 324 229 232 203 268 261 271 232 246 248 252 258 264 269 266 263 263 267 245 208 193 177 185 187 184 180 179 204 193 196 196 188 193 191 186 189 187 183 179 184 193 198 196 199 202 191
219 265 248 271 234 233 207 266 277 266 248 257 260 251 256 260 264 261 259 256 259 240 202 197 184 179 187 178 174 184 210 198 192 197 187 190 192 191 190 195 185 176 185 195 197 199 206 198 199
240 239 250 251 109 220 232 249 262 268 263 262 261 257 257 265 255 258 261 257 257 247 206 191 191 184 187 183 178 176 187 207 201 193 187 181 194 193 195 192 188 181 189 196 201 204 203 202 193
272 268 269 271 279 252 242 254 263 262 261 259 256 255 252 260 264 260 246 242 255 247 203 191 186 184 180 187 178 169 184 195 205 197 188 191 197 195 194 194 192 193 195 200 201 203 201 201 196
249 257 259 269 254 236 258 258 261 263 257 259 260 249 247 253 257 250 227 231 244 262 206 197 194 186 180 189 182 181 189 197 205 200 190 195 199 197 195 196 196 195 199 204 202 203 204 210 191
236 239 256 254 280 237 266 268 262 258 247 253 250 249 248 247 253 247 229 224 246 232 359 216 196 192 187 191 181 173 175 176 209 202 202 202 197 198 198 199 199 197 204 206 208 205 210 206 200
254 237 249 262 255 250 199 270 261 250 241 240 247 236 231 239 238 242 215 219 246 279 2 316 335 198 193 201 195 200 200 197 201 199 202 197 199 203 205 207 206 207 204 212 211 213 212 220 204
269 288 234 240 250 264 246 254 256 249 254 247 244 233 224 228 229 202 187 176 27 325 335 332 17 52 318 188 195 199 208 205 185 205 207 203 202 207 206 207 203 207 206 213 215 212 208 210 218
296 132 201 236 246 245 247 221 261 244 243 253 242 221 216 205 158 149 149 135 87 37 10 52 83 53 60 15 345 229 231 208 194 184 194 204 202 202 208 208 207 208 209 209 210 213 210 209 214
164 161 208 222 217 255 315 207 256 325 237 242 264 210 175 153 141 150 151 116 84 58 39 77 70 67 40 44 41 38 342 309 165 193 198 206 208 200 206 205 207 209 213 214 211 211 214 213 211
192 192 195 239 222 287 145 239 228 312 273 262 259 147 143 116 123 134 132 99 94 69 49 64 70 69 57 49 29 39 25 341 298 33 233 203 208 207 205 203 205 208 213 217 216 220 218 215 209
167 217 200 275 242 271 198 308 209 349 312 156 118 129 103 106 113 105 89 91 84 73 60 57 69 65 66 49 55 41 37 29 6 4 24 109 97 110 105 99 129 96 114 154 146 136 91 69 82
259 106 192 209 264 233 94 59 336 339 6 113 107 106 100 104 99 77 81 93 89 85 71 64 65 60 53 46 42 44 33 38 39 26 52 29 71 77 66 105 79 95 68 45 109 77 96 96 60
317 266 246 235 238 312 61 28 343 7 25 73 94 94 95 92 77 68 64 73 83 74 70 65 56 53 52 37 41 50 33 38 49 51 42 35 65 69 73 60 86 74 75 67 55 90 88 84 81
291 291 234 272 78 48 76 46 352 20 34 63 76 78 78 77 66 67 68 77 73 74 64 55 50 49 41 42 48 48 44 35 49 43 33 43 52 59 66 59 62 66 65 75 76 79 74 80 86